Weather History for Beverly, MA

Change the Weather History Date:

Friday, April 11, 2014

  Actual Average Record
Temperature  
Mean Temperature 60 °F -  
Max Temperature 69 °F 53 °F 73 °F (2011)
Min Temperature 50 °F 33 °F 27 °F (1999)
Degree Days  
Heating Degree Days 6    
Growing Degree Days 10 (Base 50)    
Moisture  
Dew Point 40 °F    
Average Humidity 54    
Maximum Humidity 77    
Minimum Humidity 35    
Precipitation  
Precipitation 0.01 in - - ()
Sea Level Pressure  
Sea Level Pressure 29.94 in    
Wind  
Wind Speed 12 mph (SW)    
Max Wind Speed 18 mph    
Max Gust Speed 25 mph    
Visibility 10 miles    
Events Rain    
Averages and records for this station are not official NWS values.
T = Trace of Precipitation, MM = Missing Value Source: NWS Daily Summary

Daily Weather History Graph

Daily Weather History Graph

Search for Another Location

Airport:

Trip Planner

Search our weather history database for the weather conditions in past years. The results will help you decide how hot, cold, wet, or windy it might be!

Date:

Astronomy

Apr. 11, 2014 Rise Set
Actual Time 6:09 AM EDT 7:21 PM EDT
Civil Twilight 5:40 AM EDT 7:50 PM EDT
Nautical Twilight 5:05 AM EDT 8:24 PM EDT
Astronomical Twilight 4:28 AM EDT 9:01 PM EDT
Moon 3:54 PM EDT (4/11) 4:07 AM EDT (4/11)
Length of Visible Light 14h 10m
Length of Day
13h 11m
Waxing Gibbous, 87% of the Moon is Illuminated
Apr 11
Waxing Gibbous
Apr 15
Full
Apr 22
Last Quarter
Apr 29
New
May 6
First Quarter

Hourly Weather History & Observations

Time (EDT) Temp. Dew Point Humidity Pressure Visibility Wind Dir Wind Speed Gust Speed Precip Events Conditions
12:53 AM 50.0 °F 33.1 °F 52% 29.98 in 10.0 mi SW 18.4 mph 25.3 mph N/A   Clear
1:53 AM 50.0 °F 33.1 °F 52% 29.97 in 10.0 mi SW 13.8 mph - N/A   Mostly Cloudy
2:53 AM 52.0 °F 33.1 °F 49% 29.94 in 10.0 mi SSW 16.1 mph 25.3 mph 0.00 in Rain Light Rain
3:53 AM 51.1 °F 33.1 °F 50% 29.91 in 10.0 mi South 10.4 mph - 0.00 in   Clear
4:53 AM 53.1 °F 34.0 °F 48% 29.90 in 10.0 mi SSW 15.0 mph - N/A   Overcast
5:53 AM 54.0 °F 35.1 °F 49% 29.91 in 10.0 mi SW 10.4 mph - N/A   Overcast
6:53 AM 54.0 °F 37.0 °F 53% 29.94 in 10.0 mi WSW 9.2 mph - N/A   Overcast
7:53 AM 55.0 °F 37.0 °F 51% 29.94 in 10.0 mi SW 10.4 mph - N/A   Overcast
8:53 AM 55.9 °F 37.0 °F 49% 29.95 in 10.0 mi SW 11.5 mph - N/A   Overcast
9:53 AM 55.9 °F 37.0 °F 49% 29.96 in 10.0 mi WSW 9.2 mph - 0.00 in   Overcast
10:53 AM 62.1 °F 37.9 °F 41% 29.96 in 10.0 mi SW 10.4 mph - N/A   Mostly Cloudy
11:53 AM 64.0 °F 37.9 °F 38% 29.94 in 10.0 mi SSW 8.1 mph - N/A   Scattered Clouds
12:53 PM 64.0 °F 39.0 °F 40% 29.94 in 10.0 mi South 8.1 mph - N/A   Mostly Cloudy
1:53 PM 69.1 °F 39.9 °F 35% 29.92 in 10.0 mi SW 13.8 mph - N/A   Partly Cloudy
2:53 PM 66.0 °F 42.1 °F 42% 29.90 in 10.0 mi SSE 8.1 mph - N/A   Mostly Cloudy
3:53 PM 64.0 °F 41.0 °F 43% 29.90 in 10.0 mi SSE 10.4 mph - N/A   Overcast
4:53 PM 63.0 °F 43.0 °F 48% 29.89 in 10.0 mi SE 8.1 mph - 0.00 in Rain Light Rain
5:53 PM 62.1 °F 46.0 °F 56% 29.92 in 10.0 mi West 8.1 mph - 0.00 in Rain Light Rain
6:53 PM 57.9 °F 48.9 °F 72% 29.95 in 10.0 mi WNW 10.4 mph - 0.01 in Rain Light Rain
7:53 PM 57.0 °F 48.0 °F 72% 29.97 in 10.0 mi WNW 4.6 mph - 0.00 in   Overcast
8:53 PM 55.0 °F 48.0 °F 77% 29.98 in 10.0 mi SW 4.6 mph - N/A   Overcast
9:53 PM 55.9 °F 46.9 °F 72% 29.99 in 10.0 mi WSW 4.6 mph - N/A   Overcast
10:53 PM 54.0 °F 46.0 °F 75% 29.99 in 10.0 mi WSW 4.6 mph - 0.00 in Rain Light Rain
11:53 PM 53.1 °F 46.0 °F 77% 29.97 in 10.0 mi WNW 4.6 mph - 0.00 in   Overcast